Wind_Speed
17 20 23 24 27 27 30 32 32 34 36 39 44 45 43 43 41 41 41 44 53 57 54 51 51 50 50 55 58 58 59 58 59 58 57 59 60 60 59 59 57 57 61 65 64 64 66 71 71
16 16 19 20 20 26 30 32 35 37 40 41 45 46 46 44 45 45 46 44 46 51 56 56 53 52 55 55 53 57 59 58 59 61 65 66 66 62 61 63 62 63 64 63 68 68 66 66 71
19 21 24 23 24 26 31 34 36 38 42 46 49 50 49 48 47 47 48 45 52 52 50 53 57 62 61 64 64 61 61 59 59 62 62 64 64 65 65 64 63 63 63 64 61 67 73 71 72
25 27 28 24 28 31 36 37 38 39 42 45 50 52 53 53 56 52 49 51 52 56 56 56 57 59 63 66 64 66 67 67 67 65 66 70 71 69 67 68 69 70 67 63 65 64 63 67 75
31 33 35 31 29 33 38 41 41 43 48 50 54 59 57 56 55 53 55 58 64 64 62 61 65 67 68 68 71 72 74 74 74 74 73 71 73 74 74 74 73 69 69 71 71 72 71 69 68
33 37 37 39 40 43 45 45 46 54 54 56 59 62 59 57 57 56 58 64 69 69 69 68 69 72 74 76 76 77 76 77 76 75 75 73 75 77 79 79 78 78 75 75 75 76 76 76 74
35 36 38 39 43 47 50 51 55 57 59 62 66 66 64 59 56 59 63 68 69 70 70 72 74 76 76 79 79 77 76 75 75 76 74 74 75 76 78 79 81 83 80 79 80 79 79 79 80
35 38 40 43 45 48 52 57 59 61 65 67 69 68 67 63 62 63 66 68 66 64 68 72 76 77 77 79 79 78 76 76 75 76 75 74 75 76 75 75 78 78 82 82 81 83 84 85 84
37 40 42 45 47 50 54 58 61 63 65 68 71 74 67 68 66 67 70 70 67 64 64 67 71 73 74 75 77 78 78 77 77 77 76 76 76 76 75 74 74 75 79 83 85 87 87 87 88
41 43 46 49 51 52 54 59 61 65 69 69 75 74 70 69 71 72 73 71 66 63 63 66 67 69 71 71 72 73 75 75 76 77 77 78 78 77 77 76 76 75 75 78 84 88 89 89 89
45 46 51 53 56 58 59 64 66 70 74 74 78 75 72 73 78 75 72 68 66 63 62 64 65 66 68 70 70 71 72 73 74 75 77 78 78 77 77 77 77 77 77 78 78 79 81 82 83
46 50 55 55 58 60 63 67 71 75 76 78 78 76 76 80 78 74 71 70 70 66 61 61 63 67 66 67 66 66 69 72 73 74 76 77 78 78 78 79 79 80 80 80 80 80 80 81 82
52 55 56 59 61 63 67 72 75 77 78 80 80 74 78 78 76 73 71 70 71 66 62 63 63 66 65 64 63 62 64 65 68 70 72 74 77 78 80 81 81 81 81 81 81 81 80 80 80
56 58 61 64 66 67 70 74 78 77 80 80 72 74 76 76 74 73 71 74 71 67 67 70 65 71 67 67 65 63 66 69 69 70 71 72 74 77 78 78 79 80 80 81 82 81 80 80 79
57 62 66 65 68 69 72 75 76 79 80 76 71 78 76 74 71 70 71 69 68 67 68 70 70 69 72 73 69 67 67 65 64 65 67 70 72 74 75 76 78 79 78 78 79 79 80 80 79
60 63 66 67 71 73 73 77 77 78 78 79 74 80 73 72 69 67 66 66 61 59 61 63 63 66 66 67 69 70 66 62 63 62 60 61 62 62 63 63 66 68 70 73 76 78 80 81 80
67 68 68 70 72 74 75 79 79 79 79 75 77 78 73 68 67 66 61 58 54 51 48 48 50 53 54 57 61 56 52 52 53 51 51 52 54 54 56 57 59 62 64 66 67 69 72 73 74
67 67 70 70 73 77 78 80 81 78 77 76 78 74 70 66 67 61 56 55 56 55 51 44 39 38 37 38 37 33 32 35 38 41 43 44 46 45 45 47 51 53 55 56 57 59 61 65 68
69 68 69 73 77 78 81 84 80 78 76 76 76 72 70 69 64 57 53 53 51 48 50 48 43 37 33 31 32 33 34 33 32 31 32 33 34 37 37 38 40 42 45 49 51 53 56 57 58
67 68 71 74 77 78 81 81 77 76 73 76 72 69 67 64 61 53 50 46 43 38 32 29 28 25 23 23 22 24 27 31 34 36 38 39 40 42 42 43 44 44 43 43 44 45 46 47 50
70 72 75 77 80 81 81 76 74 73 73 75 72 67 66 63 56 50 42 34 27 22 18 17 18 20 21 24 28 32 36 39 43 45 47 48 48 48 49 51 52 52 52 51 51 50 48 47 46
73 76 78 80 80 79 77 72 73 69 73 73 69 66 63 60 51 44 29 19 14 14 16 18 21 25 28 30 34 39 42 43 45 46 46 47 48 50 51 52 52 54 56 57 58 57 55 54 50
75 76 78 76 76 75 71 70 68 69 73 70 68 65 61 56 47 32 20 15 13 16 19 20 24 28 33 36 41 45 47 44 43 46 49 55 60 62 62 62 63 63 62 62 62 62 60 58 57
76 74 70 70 67 70 69 68 67 69 71 68 66 62 60 52 42 26 18 15 17 20 25 27 31 35 38 42 47 48 46 45 48 52 58 62 66 69 71 71 71 70 69 69 70 69 67 65 61
67 67 65 62 64 67 68 66 67 69 69 66 64 60 57 46 36 24 18 19 21 24 27 29 34 38 43 49 54 49 46 48 54 60 65 69 73 74 74 73 72 72 71 70 70 71 71 71 69
61 61 59 58 62 67 65 65 66 68 67 65 60 58 54 41 30 21 19 20 22 26 29 32 36 42 49 54 55 51 51 56 61 66 73 76 75 74 74 73 70 71 72 74 74 74 74 73 72
54 55 57 59 64 64 65 65 67 67 66 62 59 57 50 37 26 20 17 20 23 27 31 35 41 46 50 56 56 56 60 65 71 76 76 74 73 69 68 67 65 62 63 65 68 71 74 76 77
52 55 59 64 64 65 67 66 66 67 64 60 58 54 43 31 24 18 18 22 25 28 33 39 43 47 54 60 62 62 67 72 78 78 78 73 68 64 62 61 59 59 59 58 61 65 67 68 73
55 59 63 65 66 67 66 67 67 66 64 59 57 49 35 26 21 18 20 23 27 31 36 42 46 51 59 65 68 69 74 78 82 80 75 69 66 64 61 56 54 55 56 55 55 58 61 63 65
59 62 65 66 67 67 67 67 67 65 62 58 54 42 29 23 20 20 22 24 29 33 38 44 50 55 61 68 70 72 78 82 79 79 71 67 65 61 57 53 51 49 48 49 51 54 56 55 58
Wind_Direction
318 308 307 307 314 313 307 311 308 303 300 299 298 302 300 295 296 301 303 302 290 289 286 283 282 280 275 272 272 270 267 267 265 259 258 259 258 258 257 253 253 253 252 251 250 248 245 244 241
344 330 332 331 311 309 311 309 304 302 301 299 299 297 293 288 290 294 295 294 295 290 285 282 282 276 275 274 274 269 269 267 267 265 261 259 260 258 257 254 254 253 253 251 250 249 249 246 244
333 331 334 329 321 316 313 313 309 310 313 312 310 303 290 285 286 289 291 295 299 295 292 288 283 278 274 276 279 273 273 269 265 265 263 261 260 259 258 256 257 255 255 249 251 249 246 246 245
339 331 331 333 323 319 317 318 315 315 316 316 320 314 301 297 298 292 294 297 297 295 290 281 274 273 273 271 273 273 271 272 271 267 264 261 260 260 258 259 258 256 253 255 251 251 250 249 246
334 331 333 333 322 328 320 319 316 318 314 317 320 320 313 300 293 294 298 300 303 302 295 285 277 271 268 269 272 272 272 272 270 268 265 265 259 257 258 258 259 256 255 254 253 250 251 249 249
327 329 330 330 334 330 329 323 319 317 319 320 320 319 315 310 302 301 302 304 303 298 293 289 284 277 274 273 274 274 274 272 270 267 266 264 260 256 256 256 255 253 253 251 249 248 250 251 252
324 328 327 330 329 327 325 322 321 319 319 318 317 317 317 313 309 306 306 306 302 294 291 287 284 281 280 276 276 275 274 272 272 271 269 267 264 260 258 255 254 253 251 249 247 246 249 250 252
325 327 327 325 325 322 321 320 319 318 317 316 317 317 316 314 311 309 308 306 300 294 288 285 282 281 279 278 278 277 275 274 273 272 271 268 266 264 262 260 256 254 251 250 247 247 248 251 253
327 325 321 320 320 322 321 322 320 320 319 318 318 319 315 316 313 311 306 301 295 291 286 282 279 279 277 276 276 275 274 273 272 271 269 268 267 266 264 262 260 257 254 251 250 249 251 251 252
321 327 321 320 320 318 323 322 321 321 320 319 320 318 317 316 313 310 306 301 297 293 288 283 279 277 275 274 273 272 272 271 270 269 268 268 267 266 265 264 262 260 257 253 251 251 252 253 253
317 319 317 320 318 317 319 321 322 321 322 320 320 319 318 316 315 309 305 302 297 294 291 287 282 276 273 272 272 272 271 270 270 270 270 269 268 268 267 266 264 263 261 258 256 255 255 256 256
317 311 316 315 317 317 319 322 321 321 322 321 320 319 319 318 315 311 307 302 299 297 294 286 281 278 276 276 274 273 273 272 272 272 271 270 270 268 268 267 267 266 264 261 260 258 257 256 255
310 313 313 313 314 316 319 321 321 320 322 321 321 321 321 316 313 310 307 302 300 300 295 287 283 280 278 275 273 272 273 273 271 269 268 268 267 267 267 266 265 264 263 263 262 261 258 257 256
308 309 309 310 314 318 320 320 321 321 321 320 322 320 321 317 312 310 307 304 302 298 293 290 287 284 280 279 278 276 271 269 266 267 267 267 266 266 265 264 264 264 264 263 262 261 259 257 256
304 305 308 310 315 318 319 319 321 321 322 320 320 320 320 316 312 311 308 306 300 294 289 286 285 285 286 288 287 284 280 278 277 274 271 269 268 267 266 265 265 264 264 264 263 262 261 259 258
302 306 307 310 315 317 318 318 320 320 319 318 321 323 318 316 315 313 310 306 302 300 295 290 287 285 284 284 283 283 287 287 282 278 275 272 272 273 272 269 265 263 262 261 261 261 261 260 259
301 304 306 310 313 315 315 316 317 320 318 321 323 323 320 320 317 315 311 307 304 306 306 304 295 291 287 282 282 287 283 281 281 281 280 276 274 272 271 270 269 269 267 265 262 260 258 258 257
305 307 307 308 311 313 314 314 316 318 318 323 325 322 324 322 319 316 312 310 309 308 308 310 311 314 303 297 292 294 300 298 296 292 289 287 284 281 277 275 272 270 269 268 267 265 261 259 256
305 309 309 309 309 313 313 314 318 320 322 324 326 325 326 323 320 316 313 311 309 304 299 297 302 306 311 313 317 315 306 304 301 301 300 296 295 291 288 282 278 275 272 270 268 266 265 262 260
306 307 308 308 310 312 313 316 319 320 323 327 325 326 325 322 320 318 317 316 313 311 311 308 308 323 332 334 328 319 312 308 304 301 297 295 293 291 288 284 282 277 272 269 267 266 264 263 259
303 304 306 307 308 310 312 317 317 320 324 325 324 327 326 325 322 321 319 313 315 323 341 360 355 347 338 330 324 320 316 312 308 305 302 298 293 289 286 283 281 278 275 272 269 265 261 258 259
301 302 303 304 306 308 312 315 317 319 325 323 324 327 325 325 323 324 317 321 336 352 352 348 347 342 337 333 326 320 314 310 304 300 298 296 294 291 287 281 277 274 273 272 270 266 263 261 257
298 299 301 303 304 308 313 314 317 322 324 322 324 325 324 327 325 318 309 319 330 336 337 340 343 341 335 331 328 322 317 312 306 304 302 300 297 294 289 285 280 275 269 264 263 263 263 260 257
294 296 299 302 306 309 312 314 320 323 322 322 323 324 326 326 325 307 309 316 321 333 341 340 339 336 332 329 328 324 318 312 308 305 301 299 296 293 290 286 281 275 269 266 262 257 253 254 253
294 296 300 304 308 307 311 316 321 320 319 321 323 324 326 322 322 305 310 310 333 333 328 333 335 332 332 332 329 322 315 310 309 308 305 301 298 293 289 284 279 275 270 265 260 257 254 248 247
295 298 303 305 305 306 311 317 317 318 318 321 323 325 324 320 312 298 312 324 325 323 327 333 332 335 336 331 326 321 315 314 313 311 309 305 299 295 291 286 279 274 269 264 260 255 250 248 244
298 300 303 305 305 308 313 315 314 315 317 320 323 325 322 318 298 293 310 315 314 317 326 335 336 336 332 329 328 323 322 321 319 315 310 305 301 297 293 289 284 276 268 263 259 254 251 245 242
300 301 303 304 306 311 313 311 312 313 316 319 321 323 318 312 290 298 303 306 313 321 328 333 333 333 332 331 332 329 326 324 321 317 314 310 306 301 296 290 285 279 272 264 257 253 249 244 239
301 303 305 305 308 311 310 308 311 312 314 317 320 319 311 300 282 293 298 308 318 321 328 329 331 333 333 334 335 331 327 327 323 321 318 314 311 307 301 294 285 279 272 265 257 251 247 243 238
304 303 304 306 307 306 306 306 308 310 312 317 318 314 303 286 278 294 305 314 317 322 327 328 331 333 335 333 334 331 330 328 327 324 321 318 315 311 304 295 287 280 272 263 256 250 246 241 236
Height
10839 10839 10838 10837 10835 10832 10829 10826 10822 10818 10815 10811 10808 10806 10804 10800 10797 10795 10791 10788 10786 10781 10780 10777 10776 10774 10772 10772 10772 10772 10772 10773 10774 10776 10776 10776 10777 10779 10782 10783 10786 10788 10790 10793 10795 10797 10800 10803 10807
10837 10835 10834 10833 10830 10826 10824 10820 10817 10813 10808 10804 10800 10797 10793 10790 10788 10785 10782 10779 10775 10770 10767 10766 10764 10763 10761 10759 10759 10760 10760 10760 10759 10760 10762 10763 10764 10766 10767 10770 10773 10775 10777 10778 10781 10784 10787 10789 10793
10834 10832 10830 10829 10827 10822 10819 10816 10812 10807 10802 10798 10794 10789 10784 10780 10776 10773 10770 10767 10765 10762 10758 10754 10751 10749 10747 10746 10745 10746 10746 10745 10746 10746 10746 10748 10750 10752 10754 10757 10759 10760 10762 10764 10766 10769 10772 10775 10779
10832 10829 10828 10826 10824 10819 10813 10810 10805 10801 10797 10790 10785 10780 10774 10770 10766 10762 10758 10756 10753 10748 10744 10740 10737 10734 10732 10729 10730 10729 10729 10728 10729 10731 10731 10733 10734 10737 10739 10741 10744 10745 10748 10749 10752 10755 10756 10760 10764
10827 10824 10822 10821 10819 10814 10809 10803 10799 10794 10788 10783 10776 10770 10763 10758 10755 10750 10745 10740 10735 10733 10729 10726 10722 10720 10716 10715 10714 10712 10711 10710 10710 10711 10713 10715 10717 10719 10721 10723 10726 10728 10731 10734 10736 10739 10742 10744 10748
10822 10820 10816 10813 10811 10806 10803 10797 10791 10786 10781 10774 10768 10762 10755 10748 10741 10737 10731 10725 10717 10712 10709 10706 10704 10703 10699 10698 10697 10694 10693 10692 10690 10691 10692 10694 10697 10699 10701 10703 10705 10709 10713 10716 10717 10720 10723 10727 10730
10818 10815 10812 10808 10804 10799 10795 10790 10784 10777 10770 10764 10758 10751 10745 10737 10730 10723 10717 10711 10705 10698 10694 10690 10686 10683 10680 10678 10677 10675 10674 10673 10672 10673 10673 10674 10675 10677 10679 10682 10685 10688 10692 10695 10697 10701 10704 10707 10711
10813 10810 10806 10801 10798 10793 10787 10781 10775 10768 10760 10753 10744 10738 10731 10724 10718 10712 10704 10696 10691 10686 10680 10674 10668 10664 10661 10659 10657 10656 10656 10655 10654 10653 10653 10653 10654 10655 10657 10660 10664 10667 10670 10675 10679 10681 10684 10688 10692
10808 10805 10800 10795 10790 10786 10780 10773 10765 10756 10749 10740 10730 10723 10717 10710 10702 10696 10688 10679 10674 10668 10663 10656 10649 10644 10642 10641 10638 10637 10636 10635 10635 10633 10633 10632 10632 10634 10635 10638 10641 10645 10648 10653 10658 10662 10664 10669 10672
10802 10798 10793 10788 10782 10776 10772 10764 10755 10746 10738 10729 10718 10708 10702 10695 10686 10679 10670 10661 10656 10650 10646 10639 10633 10627 10622 10620 10619 10619 10618 10616 10615 10613 10612 10612 10613 10614 10616 10618 10621 10624 10627 10631 10637 10641 10644 10647 10652
10795 10791 10784 10780 10773 10766 10762 10753 10744 10735 10724 10714 10704 10694 10686 10679 10671 10660 10652 10643 10637 10633 10629 10620 10615 10610 10607 10604 10603 10602 10600 10598 10597 10597 10595 10595 10595 10595 10596 10597 10599 10602 10605 10610 10615 10620 10624 10626 10629
10788 10782 10776 10772 10765 10757 10751 10743 10734 10723 10713 10702 10691 10681 10671 10661 10650 10641 10632 10624 10616 10613 10611 10605 10598 10591 10590 10589 10588 10588 10585 10581 10580 10579 10578 10577 10576 10576 10576 10577 10579 10581 10583 10586 10592 10597 10603 10606 10609
10778 10774 10767 10760 10755 10749 10741 10733 10725 10713 10700 10689 10677 10665 10653 10642 10632 10622 10614 10606 10598 10596 10592 10585 10581 10576 10572 10572 10573 10573 10570 10566 10562 10559 10559 10559 10557 10557 10556 10557 10558 10559 10561 10564 10568 10573 10579 10583 10587
10770 10765 10758 10752 10745 10738 10731 10721 10712 10701 10689 10677 10666 10656 10644 10632 10619 10608 10596 10588 10581 10576 10571 10563 10562 10552 10553 10552 10553 10552 10550 10547 10546 10543 10542 10540 10538 10536 10535 10536 10536 10537 10540 10542 10545 10548 10553 10558 10564
10761 10755 10748 10742 10735 10727 10721 10711 10701 10691 10679 10668 10658 10644 10631 10619 10607 10597 10583 10575 10564 10557 10551 10544 10540 10537 10531 10528 10529 10529 10527 10526 10526 10524 10522 10520 10518 10517 10517 10517 10517 10516 10520 10521 10522 10525 10528 10532 10539
10753 10747 10739 10732 10724 10716 10709 10701 10692 10682 10673 10661 10648 10634 10620 10607 10594 10582 10571 10561 10550 10541 10535 10530 10527 10521 10519 10516 10513 10511 10510 10508 10505 10502 10502 10501 10499 10499 10498 10497 10496 10495 10497 10498 10500 10504 10505 10508 10515
10741 10736 10730 10723 10715 10708 10701 10693 10683 10672 10661 10650 10638 10625 10609 10596 10582 10570 10558 10547 10537 10531 10523 10518 10512 10507 10504 10501 10498 10498 10496 10493 10490 10488 10486 10485 10484 10482 10481 10479 10477 10476 10477 10478 10479 10481 10483 10485 10490
10727 10723 10717 10711 10704 10695 10688 10681 10673 10663 10651 10640 10627 10612 10598 10584 10570 10557 10545 10535 10525 10517 10512 10509 10505 10500 10495 10492 10489 10487 10485 10482 10478 10477 10475 10472 10470 10469 10468 10466 10462 10460 10460 10459 10459 10460 10463 10465 10470
10715 10709 10704 10698 10691 10684 10674 10666 10656 10645 10635 10624 10612 10598 10584 10570 10558 10545 10535 10526 10516 10509 10503 10500 10497 10493 10489 10485 10480 10478 10476 10473 10471 10469 10465 10461 10458 10454 10452 10450 10448 10447 10446 10444 10444 10444 10445 10447 10449
10704 10698 10691 10684 10678 10671 10661 10650 10640 10630 10621 10611 10600 10590 10577 10563 10549 10538 10528 10518 10510 10503 10498 10493 10491 10487 10482 10480 10480 10479 10475 10470 10465 10462 10457 10452 10448 10444 10441 10438 10435 10433 10431 10430 10430 10431 10432 10433 10433
10693 10687 10680 10673 10665 10657 10649 10638 10631 10620 10610 10599 10590 10578 10566 10554 10541 10531 10523 10515 10508 10501 10496 10493 10489 10486 10483 10480 10477 10473 10468 10462 10454 10449 10444 10439 10437 10433 10430 10425 10422 10418 10417 10415 10415 10415 10416 10418 10421
10681 10675 10669 10661 10653 10646 10638 10630 10621 10611 10600 10590 10579 10568 10556 10547 10536 10525 10518 10512 10506 10501 10496 10492 10488 10485 10481 10477 10471 10465 10459 10453 10445 10440 10433 10427 10423 10419 10416 10413 10409 10405 10400 10398 10396 10397 10399 10400 10404
10669 10664 10657 10650 10642 10634 10629 10621 10610 10599 10589 10579 10569 10559 10550 10539 10530 10522 10515 10510 10505 10499 10495 10490 10486 10481 10476 10470 10464 10457 10450 10443 10435 10428 10421 10413 10405 10399 10393 10390 10386 10383 10382 10380 10379 10378 10380 10382 10386
10658 10653 10647 10640 10630 10621 10615 10609 10600 10589 10579 10570 10561 10550 10540 10532 10524 10517 10512 10507 10501 10496 10489 10485 10480 10475 10469 10463 10456 10447 10439 10431 10424 10416 10408 10398 10388 10378 10370 10364 10359 10356 10355 10354 10353 10355 10359 10362 10367
10644 10640 10636 10629 10620 10611 10604 10597 10588 10580 10570 10561 10552 10542 10533 10525 10517 10511 10507 10502 10496 10492 10487 10482 10476 10469 10462 10453 10445 10437 10429 10421 10412 10401 10389 10377 10366 10353 10343 10336 10330 10326 10324 10325 10326 10328 10331 10337 10344
10633 10627 10623 10619 10609 10601 10594 10587 10578 10569 10561 10553 10543 10534 10526 10518 10512 10507 10503 10498 10493 10488 10483 10478 10471 10462 10453 10445 10435 10426 10417 10407 10395 10382 10367 10352 10338 10325 10314 10305 10301 10296 10293 10293 10296 10299 10302 10309 10318
10621 10615 10610 10603 10597 10591 10583 10576 10567 10559 10550 10543 10534 10526 10518 10512 10507 10503 10500 10495 10490 10485 10479 10472 10463 10455 10448 10438 10425 10413 10401 10388 10373 10357 10341 10325 10309 10296 10285 10275 10268 10264 10262 10261 10262 10266 10272 10281 10291
10609 10604 10597 10590 10585 10578 10571 10563 10556 10549 10541 10534 10526 10518 10511 10505 10501 10498 10495 10490 10486 10480 10473 10466 10458 10449 10439 10426 10413 10399 10386 10370 10352 10332 10314 10296 10281 10269 10259 10249 10241 10235 10232 10232 10235 10237 10242 10252 10261
10596 10590 10583 10577 10571 10564 10558 10550 10543 10537 10531 10525 10518 10510 10504 10499 10496 10494 10490 10486 10481 10475 10468 10460 10451 10441 10428 10413 10399 10385 10370 10351 10329 10309 10288 10271 10256 10243 10231 10223 10216 10210 10206 10206 10209 10212 10218 10226 10236
10583 10575 10568 10563 10557 10551 10545 10538 10532 10527 10521 10515 10508 10502 10497 10493 10491 10488 10485 10481 10475 10470 10462 10453 10442 10432 10419 10404 10389 10373 10355 10334 10311 10287 10267 10249 10233 10219 10207 10197 10190 10186 10184 10183 10185 10189 10195 10204 10215